| time (UTC) | temp C | wind direction | speed KPH | gust KPH | rain 1hr cm | rain 24hr cm | rain mn cm | humidity % | barometer mb |
| 20260504160339 | 17 | 300 | 6.4 | 0.0 | 0.00 | 0.00 | 0.00 | 89 | 1016.0 |
| 20260504150333 | 17 | 300 | 6.4 | 0.0 | 0.00 | 0.00 | 0.00 | 88 | 1016.0 |
| 20260504141328 | 16 | 120 | 4.8 | 0.0 | 0.00 | 0.00 | 0.00 | 10 | 1016.0 |
| 20260504140328 | 17 | 120 | 4.8 | 0.0 | 0.00 | 0.00 | 0.00 | 10 | 1016.0 |
| 20260504130321 | 15 | 0 | 1.6 | 0.0 | 0.00 | 0.00 | 0.00 | 10 | 1017.0 |
| 20260504120315 | 15 | 0 | 3.2 | 0.0 | 0.00 | 0.00 | 0.00 | 10 | 1017.0 |
| 20260504110308 | 10 | 110 | 6.4 | 4.8 | 0.00 | 0.00 | 0.00 | 83 | 1017.0 |
| 20260504100255 | 10 | 110 | 6.4 | 4.8 | 0.00 | 0.00 | 0.00 | 82 | 1017.0 |
| 20260504081246 | 11 | 112 | 6.4 | 4.8 | 0.00 | 0.00 | 0.00 | 82 | 1017.0 |
| 20260504080245 | 11 | 112 | 6.4 | 4.8 | 0.00 | 0.00 | 0.00 | 82 | 1017.0 |
| 20260504070236 | 11 | 108 | 6.4 | 4.8 | 0.00 | 0.00 | 0.00 | 82 | 1017.0 |
| 20260504060230 | 11 | 111 | 4.8 | 3.2 | 0.28 | 0.00 | 0.00 | 82 | 1018.0 |
| 20260504050223 | 11 | 111 | 4.8 | 1.6 | 0.00 | 0.00 | 0.00 | 82 | 1018.0 |
| 20260504045222 | 11 | 111 | 4.8 | 1.6 | 0.00 | 0.00 | 0.00 | 82 | 1018.0 |
| 20260504044222 | 11 | 108 | 6.4 | 4.8 | 0.00 | 0.00 | 0.00 | 82 | 1018.0 |
| 20260504043220 | 11 | 108 | 6.4 | 4.8 | 0.00 | 0.00 | 0.00 | 82 | 1018.0 |
| 20260504042220 | 11 | 108 | 6.4 | 4.8 | 0.00 | 0.00 | 0.00 | 82 | 1018.0 |
| 20260504041219 | 11 | 110 | 6.4 | 4.8 | 0.00 | 0.00 | 0.00 | 82 | 1018.0 |
| 20260504040218 | 11 | 110 | 6.4 | 4.8 | 0.03 | 0.00 | 0.00 | 82 | 1018.0 |
| 20260504035217 | 11 | 110 | 6.4 | 4.8 | 0.03 | 0.00 | 0.00 | 82 | 1018.0 |
| 20260504034216 | 11 | 110 | 6.4 | 4.8 | 0.00 | 0.00 | 0.00 | 84 | 1018.0 |
| 20260504033216 | 11 | 107 | 8.0 | 4.8 | 0.00 | 0.00 | 0.00 | 82 | 1018.0 |
| 20260504032216 | 11 | 107 | 8.0 | 4.8 | 0.00 | 0.00 | 0.00 | 82 | 1018.0 |
| 20260504031214 | 11 | 107 | 8.0 | 4.8 | 0.00 | 0.00 | 0.00 | 82 | 1018.0 |
| 20260504030213 | 11 | 107 | 8.0 | 4.8 | 0.00 | 0.00 | 0.00 | 82 | 1018.0 |
| 20260504025212 | 11 | 107 | 8.0 | 4.8 | 0.00 | 0.00 | 0.00 | 82 | 1018.0 |
| 20260504024211 | 11 | 107 | 8.0 | 4.8 | 0.00 | 0.00 | 0.00 | 83 | 1018.0 |
| 20260504023210 | 11 | 107 | 8.0 | 4.8 | 0.00 | 0.00 | 0.00 | 83 | 1018.0 |
| 20260504022209 | 11 | 107 | 8.0 | 4.8 | 0.00 | 0.00 | 0.00 | 83 | 1017.0 |
| 20260504021208 | 12 | 107 | 8.0 | 4.8 | 0.00 | 0.00 | 0.00 | 83 | 1017.0 |
| 20260504020203 | 12 | 107 | 8.0 | 4.8 | 0.00 | 0.00 | 0.00 | 83 | 1017.0 |
| 20260504015201 | 12 | 107 | 8.0 | 4.8 | 0.00 | 0.00 | 0.00 | 83 | 1018.0 |
| 20260504014157 | 13 | 107 | 8.0 | 4.8 | 0.00 | 0.00 | 0.00 | 83 | 1017.0 |
| 20260504013149 | 14 | 107 | 8.0 | 4.8 | 0.00 | 0.00 | 0.00 | 84 | 1017.0 |
| 20260504012148 | 14 | 107 | 8.0 | 4.8 | 0.00 | 0.00 | 0.00 | 84 | 1016.0 |
| 20260504011147 | 11 | 89 | 1.6 | 1.6 | 0.00 | 0.00 | 0.00 | 79 | 1016.0 |
| 20260504010145 | 11 | 89 | 1.6 | 1.6 | 0.00 | 0.00 | 0.00 | 80 | 1016.0 |
| 20260504005144 | 11 | 89 | 1.6 | 1.6 | 0.00 | 0.00 | 0.00 | 79 | 1016.0 |
| 20260504004143 | 12 | 89 | 1.6 | 1.6 | 0.00 | 0.00 | 0.00 | 79 | 1016.0 |
| 20260504003141 | 12 | 89 | 1.6 | 1.6 | 0.00 | 0.00 | 0.00 | 78 | 1016.0 |
| 20260504002137 | 12 | 89 | 1.6 | 1.6 | 0.00 | 0.00 | 0.00 | 78 | 1015.0 |
| 20260504001135 | 12 | 89 | 1.6 | 1.6 | 0.03 | 0.00 | 0.00 | 78 | 1015.0 |
| 20260504000135 | 13 | 89 | 1.6 | 1.6 | 0.00 | 0.00 | 0.00 | 78 | 1015.0 |
| 20260503235134 | 13 | 89 | 1.6 | 1.6 | 0.00 | 0.00 | 0.00 | 78 | 1015.0 |
| 20260503234133 | 13 | 89 | 1.6 | 1.6 | 0.00 | 0.00 | 0.00 | 78 | 1014.0 |
| 20260503233133 | 13 | 89 | 1.6 | 1.6 | 0.00 | 0.00 | 0.00 | 77 | 1014.0 |
| 20260503232132 | 13 | 89 | 1.6 | 1.6 | 0.00 | 0.00 | 0.00 | 78 | 1013.0 |
| 20260503231131 | 14 | 89 | 1.6 | 1.6 | 0.00 | 0.00 | 0.00 | 78 | 1013.0 |
| 20260503230131 | 15 | 89 | 1.6 | 1.6 | 0.00 | 0.00 | 0.00 | 78 | 1013.0 |
| 20260503225130 | 15 | 89 | 1.6 | 1.6 | 0.00 | 0.00 | 0.00 | 78 | 1013.0 |
| 20260503224130 | 15 | 89 | 1.6 | 1.6 | 0.00 | 0.00 | 0.00 | 78 | 1013.0 |
| 20260503223129 | 15 | 89 | 3.2 | 3.2 | 0.05 | 0.00 | 0.00 | 77 | 1013.0 |
| 20260503222128 | 15 | 47 | 0.0 | 4.8 | 0.00 | 0.00 | 0.00 | 77 | 1012.0 |
| 20260503221124 | 14 | 290 | 12.9 | 0.0 | 0.00 | 0.00 | 0.00 | 79 | 1012.0 |
| 20260503220121 | 15 | 290 | 12.9 | 0.0 | 0.00 | 0.00 | 0.00 | 78 | 1012.0 |
| 20260503215121 | 15 | 290 | 12.9 | 0.0 | 0.00 | 0.00 | 0.00 | 78 | 1012.0 |
| 20260503214120 | 15 | 290 | 12.9 | 0.0 | 0.00 | 0.00 | 0.00 | 78 | 1012.0 |
| 20260503213119 | 16 | 290 | 12.9 | 0.0 | 0.00 | 0.00 | 0.00 | 78 | 1012.0 |
| 20260503212119 | 16 | 290 | 12.9 | 0.0 | 0.00 | 0.00 | 0.00 | 78 | 1012.0 |
| 20260503211117 | 16 | 290 | 12.9 | 0.0 | 0.00 | 0.00 | 0.00 | 78 | 1012.0 |
| 20260503210117 | 16 | 290 | 12.9 | 0.0 | 0.00 | 0.00 | 0.00 | 78 | 1012.0 |
| 20260503205116 | 17 | 290 | 12.9 | 0.0 | 0.00 | 0.00 | 0.00 | 78 | 1012.0 |
| 20260503204116 | 17 | 290 | 12.9 | 0.0 | 0.00 | 0.00 | 0.00 | 78 | 1012.0 |
| 20260503203115 | 18 | 290 | 12.9 | 0.0 | 0.00 | 0.00 | 0.00 | 80 | 1012.0 |
| 20260503202114 | 18 | 290 | 12.9 | 0.0 | 0.00 | 0.00 | 0.00 | 78 | 1012.0 |
| 20260503201114 | 18 | 290 | 12.9 | 0.0 | 0.00 | 0.00 | 0.00 | 77 | 1012.0 |
| 20260503200113 | 18 | 290 | 12.9 | 0.0 | 0.00 | 0.00 | 0.00 | 73 | 1012.0 |
| 20260503195113 | 18 | 290 | 12.9 | 0.0 | 0.00 | 0.00 | 0.00 | 73 | 1012.0 |
| 20260503194112 | 18 | 290 | 12.9 | 0.0 | 0.00 | 0.00 | 0.00 | 73 | 1012.0 |
| 20260503193110 | 19 | 290 | 12.9 | 0.0 | 0.00 | 0.00 | 0.00 | 73 | 1012.0 |
| 20260503192108 | 19 | 290 | 12.9 | 0.0 | 0.00 | 0.00 | 0.00 | 73 | 1012.0 |
| 20260503191108 | 19 | 290 | 12.9 | 0.0 | 0.00 | 0.00 | 0.00 | 73 | 1012.0 |
| 20260503190107 | 19 | 300 | 12.9 | 0.0 | 0.00 | 0.00 | 0.00 | 73 | 1012.0 |
| 20260503185106 | 19 | 300 | 12.9 | 0.0 | 0.00 | 0.00 | 0.00 | 74 | 1012.0 |
| 20260503184106 | 19 | 300 | 12.9 | 0.0 | 0.00 | 0.00 | 0.00 | 74 | 1013.0 |
| 20260503183104 | 20 | 300 | 12.9 | 0.0 | 0.00 | 0.00 | 0.00 | 74 | 1013.0 |
| 20260503182058 | 20 | 300 | 12.9 | 0.0 | 0.00 | 0.00 | 0.00 | 74 | 1014.0 |
| 20260503181057 | 20 | 300 | 12.9 | 0.0 | 0.00 | 0.00 | 0.00 | 74 | 1014.0 |
| 20260503180055 | 20 | 300 | 12.9 | 0.0 | 0.00 | 0.00 | 0.00 | 76 | 1014.0 |
| 20260503175055 | 20 | 300 | 12.9 | 0.0 | 0.00 | 0.00 | 0.00 | 77 | 1014.0 |
| 20260503174053 | 18 | 300 | 12.9 | 0.0 | 0.00 | 0.00 | 0.00 | 79 | 1014.0 |
| 20260503173052 | 18 | 300 | 12.9 | 0.0 | 0.00 | 0.00 | 0.00 | 79 | 1014.0 |
| 20260503172049 | 19 | 300 | 12.9 | 0.0 | 0.00 | 0.00 | 0.00 | 79 | 1015.0 |
| 20260503171048 | 20 | 300 | 12.9 | 0.0 | 0.00 | 0.00 | 0.00 | 79 | 1015.0 |